User: anonymous   Login
Location: Dos Palmas
(32.4468°N, 116.8732°W)
Time: 02:54:16
(UTC+00:00)
Language:

Cosmos 2237 Rocket - Orbit

View from above orbital plane
View from above orbital plane
View from above satellite
View from above satellite

Ground track
Ground track

The orbit data is extracted from the following two-line orbital elements,

1 22566U 93016B   21260.64656138  .00000126  00000-0  89827-4 0  9997
2 22566  71.0090  46.0489 0012474 286.8795  73.0959 14.14978907471010
Epoch (UTC): 17 September 2021 15:31:02
Eccentricity: 0.0012474
inclination: 71.0090°
perigee height: 833 km
apogee height: 851 km
right ascension of ascending node: 46.0489°
argument of perigee: 286.8795°
revolutions per day: 14.14978907
mean anomaly at epoch: 73.0959°
orbit number at epoch: 47101

The dashed part of the orbit path shows where the satellite is in the earth's shadow,  

DLR